カタログに戻る

FLOCK 4BE 2

運用中科学SSO
NORAD 60511·PAYLOAD·🇺🇸 United States

打ち上げ Aug 16, 2024 から Vandenberg Space Force Base

Loading…

次のパス (今後24時間)

TLE

最新Source: Space-Track

元期: Sep 14, 2026, 04:37 UTC

1 60511U 24149AV  26257.19241788  .00087883  00000-0  88725-3 0  9992
2 60511  97.3776 347.7477 0003296 276.9236  83.1649 15.65062823116364

AllMySatでFLOCK 4BE 2をリアルタイム追跡

Download on the App Store